Daviess Cnty AP, Washington,, IN

6:52 AM EDT on September 20, 2019 (GMT -0400)
Daviess County

Weather History for KDCY - July, 2019

Change the Weather History Date:

Tuesday, July 9, 2019

  Actual Average (KLWV) Record (KLWV)
Temperature  
Mean Temperature 82 °F -  
Max Temperature 89 °F 84 °F 98 °F (2002)
Min Temperature 74 °F 64 °F 62 °F (2017)
Cooling Degree Days 16    
Growing Degree Days 32 (Base 50)    
Moisture  
Dew Point 69 °F    
Average Humidity 62    
Maximum Humidity 99    
Minimum Humidity 45    
Precipitation  
Precipitation 0.00 in - - ()
Sea Level Pressure  
Sea Level Pressure 29.98 in    
Wind  
Wind Speed 2 mph (SSE)    
Max Wind Speed 5 mph    
Max Gust Speed -    
Visibility 10 miles    
Events      
Averages and records for this station are not official NWS values.
T = Trace of Precipitation, MM = Missing Value Source: NWS Daily Summary

Daily Weather History Graph

Daily Weather History Graph

Search for Another Location

Airport or City:

Astronomy

Jul. 09, 2019 Rise Set
Actual Time 6:31 AM EDT 9:15 PM EDT
Civil Twilight 6:00 AM EDT 9:46 PM EDT
Nautical Twilight 5:21 AM EDT 10:25 PM EDT
Astronomical Twilight 4:36 AM EDT 11:10 PM EDT
Moon 2:16 PM EDT (7/9) 1:37 AM EDT (7/9)
Length of Visible Light 15h 46m
Length of Day
14h 43m
First Quarter, 52% of the Moon is Illuminated
Jul 9
First Quarter
Jul 16
Full
Jul 24
Last Quarter
Jul 31
New
Aug 7
First Quarter

Hourly Weather History & Observations

Time (EDT) Temp. Heat Index Dew Point Humidity Pressure Visibility Wind Dir Wind Speed Gust Speed Precip Events Conditions
11:15 AM 81.7 °F 84.7 °F 68.4 °F 64% 30.02 in 10.0 mi South 3.5 mph - N/A   Clear
11:35 AM 82.6 °F 85.7 °F 68.4 °F 62% 30.02 in 10.0 mi Calm Calm - N/A   Clear
11:55 AM 84.2 °F 88.1 °F 69.6 °F 61% 30.02 in 10.0 mi SE 3.5 mph - N/A   Clear
12:15 PM 84.7 °F 87.9 °F 68.0 °F 57% 30.02 in 10.0 mi NNE 3.5 mph - N/A   Clear
12:35 PM 85.1 °F 87.9 °F 67.5 °F 55% 30.01 in 10.0 mi ESE 4.6 mph - N/A   Clear
12:55 PM 85.5 °F 88.8 °F 68.0 °F 56% 30.01 in 10.0 mi Calm Calm - N/A   Scattered Clouds
1:15 PM 85.8 °F 88.5 °F 66.9 °F 53% 30.01 in 10.0 mi North 4.6 mph - N/A   Scattered Clouds
1:35 PM 86.4 °F 89.0 °F 67.1 °F 52% 30.01 in 10.0 mi Calm Calm - N/A   Clear
1:55 PM 86.9 °F 89.3 °F 66.4 °F 50% 30.00 in 10.0 mi Calm Calm - N/A   Clear
2:15 PM 86.7 °F 87.5 °F 62.8 °F 45% 30.00 in 10.0 mi Calm Calm - N/A   Clear
2:35 PM 87.3 °F 88.9 °F 64.9 °F 47% 29.99 in 10.0 mi SE 3.5 mph - N/A   Clear
2:55 PM 87.4 °F 89.8 °F 66.4 °F 49% 29.98 in 10.0 mi Calm Calm - N/A   Clear
3:15 PM 88.3 °F 90.9 °F 66.2 °F 48% 29.98 in 10.0 mi Calm Calm - N/A   Clear
3:35 PM 88.2 °F 90.3 °F 65.8 °F 47% 29.98 in 10.0 mi SSE 3.5 mph - N/A   Scattered Clouds
3:55 PM 88.5 °F 91.6 °F 67.1 °F 49% 29.97 in 10.0 mi Calm Calm - N/A   Mostly Cloudy
4:15 PM 89.1 °F 91.0 °F 65.1 °F 45% 29.97 in 10.0 mi Calm Calm - N/A   Scattered Clouds
4:35 PM 88.9 °F 90.7 °F 65.3 °F 45% 29.97 in 10.0 mi Calm Calm - N/A   Scattered Clouds
4:55 PM 88.7 °F 90.8 °F 65.3 °F 46% 29.97 in 10.0 mi Calm Calm - N/A   Scattered Clouds
5:15 PM 88.5 °F 90.5 °F 65.3 °F 46% 29.97 in 10.0 mi SSE 4.6 mph - N/A   Scattered Clouds
5:35 PM 88.5 °F 90.1 °F 64.4 °F 45% 29.97 in 10.0 mi Calm Calm - N/A   Clear
5:55 PM 88.7 °F 91.5 °F 66.6 °F 48% 29.97 in 10.0 mi Calm Calm - N/A   Clear
6:15 PM 87.8 °F 90.4 °F 66.2 °F 49% 29.97 in 10.0 mi Calm Calm - N/A   Clear
6:35 PM 88.2 °F 90.6 °F 66.2 °F 48% 29.97 in 10.0 mi Calm Calm - N/A   Scattered Clouds
6:55 PM 88.7 °F 91.5 °F 66.9 °F 48% 29.96 in 10.0 mi SE 3.5 mph - N/A   Scattered Clouds
7:15 PM 87.8 °F 91.8 °F 68.5 °F 53% 29.96 in 10.0 mi ESE 3.5 mph - N/A   Clear
7:35 PM 88.0 °F 91.4 °F 68.0 °F 51% 29.96 in 10.0 mi ESE 3.5 mph - N/A   Clear
7:55 PM 86.9 °F 90.6 °F 68.4 °F 54% 29.96 in 10.0 mi Calm Calm - N/A   Clear
8:15 PM 85.3 °F 89.8 °F 70.0 °F 60% 29.96 in 10.0 mi Calm Calm - N/A   Clear
8:35 PM 81.7 °F 87.6 °F 74.3 °F 78% 29.97 in 10.0 mi Calm Calm - N/A   Scattered Clouds
8:55 PM 80.4 °F 85.1 °F 73.6 °F 80% 29.97 in 10.0 mi Calm Calm - N/A   Scattered Clouds
9:15 PM 79.9 °F - 70.9 °F 74% 29.97 in 10.0 mi WSW 3.5 mph - N/A   Scattered Clouds
9:35 PM 78.1 °F - 71.4 °F 80% 29.97 in 10.0 mi Calm Calm - N/A   Clear
9:55 PM 76.3 °F - 71.6 °F 85% 29.98 in 10.0 mi SSW 3.5 mph - N/A   Clear
10:15 PM 75.7 °F - 72.3 °F 89% 29.97 in 10.0 mi South 4.6 mph - N/A   Clear
10:35 PM 75.2 °F - 73.4 °F 94% 29.98 in 10.0 mi South 3.5 mph - N/A   Clear
10:55 PM 75.2 °F - 73.2 °F 94% 29.98 in 10.0 mi Calm Calm - N/A   Clear
11:15 PM 74.8 °F - 74.1 °F 98% 29.98 in 10.0 mi Calm Calm - N/A   Clear
11:35 PM 74.5 °F - 74.3 °F 99% 29.98 in 10.0 mi Calm Calm - N/A   Clear
11:55 PM 74.8 °F - 74.1 °F 98% 29.98 in 10.0 mi Calm Calm - N/A   Clear